{"data":{"norad_id":55949,"epoch":"2026-05-25T02:14:19.929408Z","epoch_age_seconds":76993,"freshness":"FRESH","line1":"1 55949U 23037AM  26145.09328622 -.00000003  00000+0  75170-5 0  9995","line2":"2 55949  70.0003  71.9817 0002964 268.8499  91.2321 14.98331524175915","mean_motion":14.98331524,"eccentricity":0.0002964,"inclination_deg":70.0003,"raan_deg":71.9817,"arg_perigee_deg":268.8499,"mean_anomaly_deg":91.2321,"bstar":7.517e-6,"rev_number":17591,"period_min":96.106901372249,"perigee_km":569.99114232814,"apogee_km":574.11121388012,"semimajor_km":6950.1881781041,"source":"CELESTRAK","updated_at":"2026-05-25T13:38:17.917890Z"}}